Location: Mahannah Oil Field
(37.4664°N, 96.6003°W)
Time: 14:11:29
(UTC+00:00)

Vanguard 2 Rocket - Visible Passes

Search period start: 25 January 2021 00:00
Search period end: 04 February 2021 00:00
Orbit: 554 x 3325 km, 32.9° (Epoch: 25 January)

Date Brightness Start Highest point End Pass type
(mag) Time Alt. Az. Time Alt. Az. Time Alt. Az.
25 Jan 7.8 00:12:48 10° W 00:22:55 62° S 00:28:38 10° ESE visible
25 Jan 8.3 02:30:02 10° W 02:35:08 26° SW 02:35:08 26° SW visible
26 Jan 7.9 01:28:31 10° W 01:36:16 41° SSW 01:39:08 24° SSE visible
27 Jan 8.0 00:26:42 10° W 00:36:45 55° SSW 00:42:30 10° ESE visible
27 Jan 8.8 02:44:42 10° WSW 02:48:52 17° SW 02:48:59 17° SW visible
28 Jan 8.4 01:42:41 10° W 01:49:48 30° SSW 01:53:04 18° SSE visible
29 Jan 8.4 00:40:39 10° W 00:50:26 45° SSW 00:56:11 10° SE visible
30 Jan 9.0 01:57:12 10° W 02:03:06 21° SW 02:07:10 11° S visible
31 Jan 9.0 00:54:44 10° W 01:03:54 35° SSW 01:09:34 10° SSE visible
01 Feb 9.5 02:12:48 10° WSW 02:16:10 13° SW 02:18:59 10° SSW visible
02 Feb 9.3 01:09:09 10° W 01:17:07 25° SW 01:22:27 10° SSE visible
03 Feb 9.4 00:06:16 10° W 00:17:42 39° SW 00:24:34 10° SSE visible
